Weather reports worldwide

Advertisment
Jerez De La Frontera aeropuert, Spain (8451): temperature & dewpoint: 18.08.2019 07:00:00 - 24.08.2019 07:00:00 (CEST)Jerez De La Frontera aeropuert, Spain (8451): wind speed: 18.08.2019 07:00:00 - 24.08.2019 07:00:00 (CEST)Jerez De La Frontera aeropuert, Spain (8451): wind direction: 18.08.2019 07:00:00 - 24.08.2019 07:00:00 (CEST)Jerez De La Frontera aeropuert, Spain (8451): reduced air pressure: 18.08.2019 07:00:00 - 24.08.2019 07:00:00 (CEST)Jerez De La Frontera aeropuert, Spain (8451): visibility: 18.08.2019 07:00:00 - 24.08.2019 07:00:00 (CEST)
Date & Time tt [°C] td [°C] ff [km/h] ff [kn] dd ppp [hPa] vv [km]
24.08.2019 07:00:00 20,9 14,5 5 3 NE 1015,6 10
24.08.2019 06:00:00 21,3 13,6 0 0 N 1015,5 10
24.08.2019 05:00:00 21,5 7,7 9 5 NNE 1015,8 10
24.08.2019 04:00:00 17,7 14,5 9 5 NE 1015,9 10
24.08.2019 03:00:00 20,0 16,4 0 0 N 1016,4 10
24.08.2019 02:00:00 22,3 18,3 13 7 NW 1016,3 10
24.08.2019 01:00:00 23,5 12,5 11 6 WNW 1016,1 10
24.08.2019 00:00:00 22,1 14,0 4 2 - 1015,4 10
23.08.2019 23:00:00 25,0 13,5 5 3 SE 1014,8 10
23.08.2019 22:00:00 26,9 14,3 9 5 SE 1014,1 10
23.08.2019 21:00:00 29,0 15,4 15 8 SE 1013,5 10
23.08.2019 20:00:00 31,8 14,9 15 8 SSE 1013,3 10
23.08.2019 19:00:00 33,5 14,5 16 9 SSE 1013,6 10
23.08.2019 18:00:00 34,6 15,0 16 9 S 1013,5 10
23.08.2019 17:00:00 35,4 15,9 18 10 S 1013,7 10
23.08.2019 16:00:00 36,4 14,4 13 7 E 1014,1 10
23.08.2019 15:00:00 35,6 13,5 11 6 ESE 1014,7 10
23.08.2019 14:00:00 34,4 16,2 16 9 E 1015,4 10
23.08.2019 13:00:00 33,1 16,4 22 12 E 1015,7 10
23.08.2019 12:00:00 32,2 16,5 18 10 E 1015,9 10
23.08.2019 11:00:00 30,0 16,3 22 12 E 1016,1 10
23.08.2019 10:00:00 28,0 15,5 26 14 ENE 1015,9 10
23.08.2019 09:00:00 26,3 13,8 18 10 ENE 1015,5 10
23.08.2019 08:00:00 23,9 12,8 13 7 ENE 1015,1 10
23.08.2019 07:00:00 22,2 12,2 11 6 NNE 1014,9 10
23.08.2019 06:00:00 21,8 10,9 11 6 NE 1015,1 10
23.08.2019 05:00:00 24,9 9,2 16 9 ENE 1015,0 10
23.08.2019 04:00:00 25,3 9,2 16 9 E 1015,0 10
23.08.2019 03:00:00 23,7 11,7 9 5 E 1015,1 10
23.08.2019 02:00:00 22,7 14,3 4 2 - 1015,0 10
23.08.2019 01:00:00 23,9 15,9 5 3 E 1015,0 10
23.08.2019 00:00:00 25,5 16,4 9 5 E 1015,1 10
22.08.2019 23:00:00 26,6 17,4 11 6 ESE 1015,1 10
22.08.2019 22:00:00 27,5 17,7 11 6 E 1014,7 10
22.08.2019 21:00:00 29,4 16,6 16 9 E 1014,2 10
22.08.2019 20:00:00 31,9 15,8 29 16 ESE 1013,6 10
22.08.2019 19:00:00 33,5 15,3 34 18 ESE 1013,5 10
22.08.2019 18:00:00 34,3 15,7 28 15 ESE 1013,5 10
22.08.2019 17:00:00 34,8 15,7 29 16 ESE 1013,8 10
22.08.2019 16:00:00 35,0 16,2 24 13 ESE 1014,3 10
22.08.2019 15:00:00 35,2 18,1 15 8 ESE 1014,7 10
22.08.2019 14:00:00 34,6 17,7 15 8 E 1015,1 10
22.08.2019 13:00:00 33,3 17,2 15 8 E 1015,9 10
22.08.2019 12:00:00 32,5 16,9 21 11 ESE 1016,1 10
22.08.2019 11:00:00 30,4 17,3 16 9 E 1016,0 10
22.08.2019 10:00:00 28,5 16,2 13 7 E 1016,0 10
22.08.2019 09:00:00 26,0 16,7 8 4 ENE 1016,1 10
22.08.2019 08:00:00 23,5 17,5 9 5 ENE 1016,0 10
22.08.2019 07:00:00 22,6 17,9 5 3 N 1015,9 10
22.08.2019 06:00:00 22,3 18,3 11 6 NE 1015,8 10
22.08.2019 05:00:00 23,4 17,9 9 5 NNE 1016,4 10
22.08.2019 04:00:00 24,7 17,9 9 5 E 1016,5 10
22.08.2019 03:00:00 22,8 17,3 4 2 - 1016,6 10
22.08.2019 02:00:00 23,3 18,0 4 2 - 1017,0 10
22.08.2019 01:00:00 23,6 19,1 2 1 - 1016,8 10
22.08.2019 00:00:00 25,3 18,0 4 2 - 1016,4 10
21.08.2019 23:00:00 26,2 18,6 2 1 - 1015,9 10
21.08.2019 22:00:00 27,9 19,1 11 6 S 1015,1 10
21.08.2019 21:00:00 29,7 19,4 15 8 S 1014,7 10
21.08.2019 20:00:00 32,1 19,4 15 8 SSE 1014,0 10
21.08.2019 19:00:00 33,7 19,6 11 6 WSW 1014,0 10
21.08.2019 18:00:00 33,7 18,6 18 10 WNW 1014,0 10
21.08.2019 17:00:00 33,8 19,0 9 5 - 1014,1 10
21.08.2019 16:00:00 35,3 19,3 21 11 S 1014,3 10
21.08.2019 15:00:00 34,9 19,3 16 9 SSE 1014,7 10
21.08.2019 14:00:00 33,2 19,3 4 2 - 1015,2 10
21.08.2019 13:00:00 33,1 18,5 4 2 - 1015,9 10
21.08.2019 12:00:00 31,4 15,4 2 1 - 1016,4 10
21.08.2019 11:00:00 29,4 10,7 9 5 NW 1016,4 10
21.08.2019 10:00:00 26,1 9,5 5 3 NNE 1016,4 10
21.08.2019 09:00:00 20,8 11,6 2 1 - 1016,2 10
21.08.2019 08:00:00 17,4 11,9 5 3 NNW 1016,0 10
21.08.2019 07:00:00 17,0 11,7 2 1 - 1015,7 10
21.08.2019 06:00:00 16,9 12,2 2 1 NW 1015,7 10
21.08.2019 05:00:00 17,6 12,4 0 0 N 1015,7 10
21.08.2019 04:00:00 18,4 12,4 8 4 E 1015,6 10
21.08.2019 03:00:00 18,5 14,2 2 1 - 1015,8 10
21.08.2019 02:00:00 18,8 13,9 4 2 - 1016,2 10
21.08.2019 01:00:00 20,3 14,4 5 3 S 1016,3 10
21.08.2019 00:00:00 21,3 13,7 5 3 S 1016,4 10
20.08.2019 23:00:00 22,5 13,8 9 5 WSW 1015,9 10
20.08.2019 22:00:00 23,8 12,3 8 4 W 1015,3 10
20.08.2019 21:00:00 26,9 11,0 11 6 W 1014,7 10
20.08.2019 20:00:00 29,8 9,7 15 8 WSW 1014,4 10
20.08.2019 19:00:00 32,1 8,2 15 8 WSW 1014,4 10
20.08.2019 18:00:00 32,9 6,6 15 8 SW 1014,6 10
20.08.2019 17:00:00 32,7 6,8 15 8 WSW 1014,7 10
20.08.2019 16:00:00 32,5 8,5 15 8 SSW 1015,2 10
20.08.2019 15:00:00 32,1 10,4 16 9 SSW 1015,7 10
20.08.2019 14:00:00 31,1 13,9 9 5 SSW 1016,1 10
20.08.2019 13:00:00 28,9 17,2 11 6 SW 1016,4 10
20.08.2019 12:00:00 26,5 17,6 11 6 SSW 1016,5 10
20.08.2019 11:00:00 23,9 18,4 9 5 S 1016,3 10
20.08.2019 10:00:00 21,4 18,2 8 4 S 1016,0 10
20.08.2019 09:00:00 18,8 16,6 0 0 N 1015,8 10
20.08.2019 08:00:00 14,6 12,8 0 0 N 1015,5 10
20.08.2019 07:00:00 15,7 13,9 2 1 - 1015,1 10
20.08.2019 06:00:00 15,4 13,1 0 0 N 1014,8 10
20.08.2019 05:00:00 16,3 13,8 0 0 N 1015,1 10
20.08.2019 04:00:00 17,2 13,9 0 0 N 1015,2 10
20.08.2019 03:00:00 18,0 13,5 4 2 SE 1015,2 10
20.08.2019 02:00:00 19,0 14,0 4 2 - 1015,6 10
20.08.2019 01:00:00 20,9 14,8 8 4 S 1015,5 10
20.08.2019 00:00:00 21,1 13,0 5 3 S 1015,4 10
19.08.2019 23:00:00 22,2 13,1 8 4 SE 1015,3 10
19.08.2019 22:00:00 23,8 13,9 9 5 SW 1014,6 10
19.08.2019 21:00:00 26,0 18,2 15 8 WSW 1014,3 10
19.08.2019 20:00:00 29,2 16,0 18 10 WSW 1013,8 10
19.08.2019 19:00:00 31,3 12,4 21 11 W 1013,9 10
19.08.2019 18:00:00 32,4 11,5 21 11 W 1013,9 10
19.08.2019 17:00:00 32,6 14,9 24 13 W 1014,4 10
19.08.2019 16:00:00 33,0 18,0 22 12 WSW 1014,7 10
19.08.2019 15:00:00 31,6 20,5 21 11 WSW 1015,3 10
19.08.2019 14:00:00 32,5 21,5 15 8 SW 1015,2 10
19.08.2019 13:00:00 31,3 20,6 11 6 S 1015,2 10
19.08.2019 12:00:00 29,2 20,6 9 5 SSE 1015,3 10
19.08.2019 11:00:00 26,5 21,2 11 6 SE 1015,5 10
19.08.2019 10:00:00 23,5 20,9 5 3 SSE 1015,6 6
19.08.2019 09:00:00 21,1 20,6 5 3 SSE 1015,3 4,0
19.08.2019 08:00:00 19,8 19,6 4 2 E 1015,2 1,2
19.08.2019 07:00:00 19,3 19,0 5 3 SSE 1014,8 0,8
19.08.2019 06:00:00 17,9 17,1 4 2 - 1014,5 10
19.08.2019 05:00:00 18,0 16,7 4 2 SE 1014,5 10
19.08.2019 04:00:00 18,2 16,5 4 2 SSE 1014,7 10
19.08.2019 03:00:00 18,5 16,5 0 0 N 1015,2 10
19.08.2019 02:00:00 19,7 17,8 4 2 SSW 1015,3 10
19.08.2019 01:00:00 20,5 17,9 8 4 S 1015,2 10
19.08.2019 00:00:00 21,4 18,4 8 4 SSE 1015,3 10
18.08.2019 23:00:00 21,7 18,3 8 4 S 1015,1 10
18.08.2019 22:00:00 23,4 18,1 8 4 S 1014,3 10
18.08.2019 21:00:00 26,0 17,6 15 8 SW 1013,7 10
18.08.2019 20:00:00 28,4 18,2 22 12 SW 1013,6 10
18.08.2019 19:00:00 30,5 17,9 22 12 SSW 1013,6 10
18.08.2019 18:00:00 32,4 17,8 16 9 SW 1013,5 10
18.08.2019 17:00:00 31,8 17,7 21 11 SW 1013,9 10
18.08.2019 16:00:00 31,8 18,6 21 11 SSW 1014,1 10
18.08.2019 15:00:00 31,1 19,5 18 10 SSW 1014,4 10
18.08.2019 14:00:00 30,2 19,8 22 12 SSW 1014,8 10
18.08.2019 13:00:00 30,1 20,3 21 11 SSW 1014,9 10
18.08.2019 12:00:00 27,5 20,0 16 9 S 1015,0 10
18.08.2019 11:00:00 24,7 20,2 21 11 S 1014,7 10
18.08.2019 10:00:00 23,0 19,9 18 10 S 1014,3 10
18.08.2019 09:00:00 21,6 16,1 5 3 SSE 1013,5 10
18.08.2019 08:00:00 19,3 16,3 9 5 SSE 1013,2 10
18.08.2019 07:00:00 17,8 12,4 2 1 - 1012,6 10

tt = temperature
td = dewpoint
ff = wind speed
dd = wind direction
ppp = reduced air pressure
vv = visibility

Next stations